Location: Borz?cin
(51.1714°N, 19.6030°E)
Time: 08:43:59
(UTC+00:00)

Cosmos 2150 Rocket - Pass Details

Date: 19 May 2025
Orbit: 745 x 804 km, 74.0° (Epoch: 16 June)

Event Time Altitude Azimuth Distance (km) Brightness Sun altitude
Rises 19:51:28 0° 336° (NNW) 3,290 9.0 -10.0°
Reaches altitude 10° 19:53:54 10° 341° (NNW) 2,366 7.8 -10.3°
Maximum altitude 19:59:14 60° 61° (ENE) 915 4.4 -10.8°
Enters shadow 20:03:42 15° 139° (SE) 2,044 5.5 -11.2°
